Radiation Dose measured at exhaust stack monitor of Miscellaneous Solid Waste Incinerator Building/Incinerator raregas monitor
Date,Time,Incinerator Gas Monitor(cps),Wind Direction,Wind Velocity(m/s)
2021/05/16,00:00,1.5,south,9.1
2021/05/16,00:10,1.4,south,9.1
2021/05/16,00:20,1.5,south,10.6
2021/05/16,00:30,1.5,south,10.7
2021/05/16,00:40,1.5,south,10.2
2021/05/16,00:50,1.4,south,10.2
2021/05/16,01:00,1.5,south,11.0
2021/05/16,01:10,1.5,south,12.0
2021/05/16,01:20,1.5,south,11.0
2021/05/16,01:30,1.4,south,11.0
2021/05/16,01:40,1.4,south-southeast,10.7
2021/05/16,01:50,1.4,south,9.5
2021/05/16,02:00,1.4,south,9.4
2021/05/16,02:10,1.5,south,8.7
2021/05/16,02:20,1.5,south,7.6
2021/05/16,02:30,1.6,south,7.3
2021/05/16,02:40,1.5,south,7.8
2021/05/16,02:50,1.4,south,7.3
2021/05/16,03:00,1.4,south,8.0
2021/05/16,03:10,1.4,south,8.4
2021/05/16,03:20,1.4,south,8.9
2021/05/16,03:30,1.5,south,8.7
2021/05/16,03:40,1.4,south,8.3
2021/05/16,03:50,1.5,south,7.9
2021/05/16,04:00,1.5,south,7.9
2021/05/16,04:10,1.4,south,8.6
2021/05/16,04:20,1.4,south,9.8
2021/05/16,04:30,1.5,south,9.8
2021/05/16,04:40,1.4,south,10.2
2021/05/16,04:50,1.4,south,7.9
2021/05/16,05:00,1.4,south,8.7
2021/05/16,05:10,1.5,south,8.2
2021/05/16,05:20,1.5,south,7.9
2021/05/16,05:30,1.5,south,7.6
2021/05/16,05:40,1.5,south,7.7
2021/05/16,05:50,1.5,south,7.6
2021/05/16,06:00,1.5,south,6.5
2021/05/16,06:10,1.4,south,6.8
2021/05/16,06:20,1.5,south,8.6
2021/05/16,06:30,1.5,south,10.2
2021/05/16,06:40,1.4,south,9.1
2021/05/16,06:50,1.4,south-southeast,10.7
2021/05/16,07:00,1.5,south-southeast,12.8
2021/05/16,07:10,1.4,south-southeast,11.9
2021/05/16,07:20,1.4,south-southeast,9.5
2021/05/16,07:30,1.5,south-southeast,8.5
2021/05/16,07:40,1.4,south-southeast,9.7
2021/05/16,07:50,1.5,south-southeast,10.2
2021/05/16,08:00,1.6,south-southeast,10.7
2021/05/16,08:10,1.5,south-southeast,11.7
2021/05/16,08:20,1.5,south-southeast,12.8
2021/05/16,08:30,1.4,south-southeast,15.2
2021/05/16,08:40,1.4,south,14.1
2021/05/16,08:50,1.5,south-southeast,14.4
2021/05/16,09:00,1.4,south,13.5
2021/05/16,09:10,1.4,south-southeast,14.6
2021/05/16,09:20,1.5,south-southeast,13.8
2021/05/16,09:30,1.4,south-southeast,14.6
2021/05/16,09:40,1.4,south-southeast,15.2
2021/05/16,09:50,1.4,south,14.7
2021/05/16,10:00,1.4,south-southeast,16.1
2021/05/16,10:10,1.5,south-southeast,13.5
2021/05/16,10:20,1.4,south-southeast,15.8
2021/05/16,10:30,1.5,south-southeast,15.2
2021/05/16,10:40,1.5,south-southeast,18.3
2021/05/16,10:50,1.5,south-southeast,15.5
2021/05/16,11:00,1.5,south,14.7
2021/05/16,11:10,1.5,south,14.9
2021/05/16,11:20,1.4,south-southeast,16.6
2021/05/16,11:30,1.4,south,19.4
2021/05/16,11:40,1.4,south-southeast,18.0
2021/05/16,11:50,1.5,south,15.8
2021/05/16,12:00,1.5,south-southeast,15.8
2021/05/16,12:10,1.4,south-southeast,16.3
2021/05/16,12:20,1.5,south-southeast,15.0
2021/05/16,12:30,1.5,south-southeast,15.2
2021/05/16,12:40,1.5,south,17.4
2021/05/16,12:50,1.5,south-southeast,16.6
2021/05/16,13:00,1.5,south-southeast,17.6
2021/05/16,13:10,1.4,south-southeast,18.3
2021/05/16,13:20,1.5,south-southeast,15.2
2021/05/16,13:30,1.4,south,14.4
2021/05/16,13:40,1.4,south,11.6
2021/05/16,13:50,1.4,south-southeast,13.0
2021/05/16,14:00,1.4,south,13.8
2021/05/16,14:10,1.5,south-southeast,13.9
2021/05/16,14:20,1.4,south-southeast,13.0
2021/05/16,14:30,1.5,south,13.1
2021/05/16,14:40,1.4,south-southeast,11.3
2021/05/16,14:50,1.4,south,10.5
2021/05/16,15:00,1.5,south,9.8
2021/05/16,15:10,1.4,south,9.7
2021/05/16,15:20,1.5,south,9.0
2021/05/16,15:30,1.4,south,10.3
2021/05/16,15:40,1.5,south,8.9
2021/05/16,15:50,1.4,south,10.2
2021/05/16,16:00,1.5,south,8.7
2021/05/16,16:10,1.4,south,8.0
2021/05/16,16:20,1.5,south,8.1
2021/05/16,16:30,1.4,south,9.5
2021/05/16,16:40,1.4,south,9.4
2021/05/16,16:50,1.4,south-southeast,9.8
2021/05/16,17:00,1.5,south,7.5
2021/05/16,17:10,1.4,south,7.1
2021/05/16,17:20,1.5,south,8.3
2021/05/16,17:30,1.5,south,7.1
2021/05/16,17:40,1.5,south,7.8
2021/05/16,17:50,1.6,south-southeast,7.9
2021/05/16,18:00,1.5,south,9.7
2021/05/16,18:10,1.4,south,11.6
2021/05/16,18:20,1.5,south,10.5
2021/05/16,18:30,1.5,south,9.4
2021/05/16,18:40,1.5,south-southeast,9.2
2021/05/16,18:50,1.4,south-southeast,11.0
2021/05/16,19:00,1.5,south,13.1
2021/05/16,19:10,1.4,south,13.5
2021/05/16,19:20,1.4,south-southeast,13.0
2021/05/16,19:30,1.5,south-southeast,11.9
2021/05/16,19:40,1.5,south-southeast,12.4
2021/05/16,19:50,1.4,south-southeast,11.7
2021/05/16,20:00,1.5,south,10.2
2021/05/16,20:10,1.4,south,8.7
2021/05/16,20:20,1.4,south,8.8
2021/05/16,20:30,1.4,south,9.9
2021/05/16,20:40,1.4,south,10.7
2021/05/16,20:50,1.5,south,11.0
2021/05/16,21:00,1.5,south,9.1
2021/05/16,21:10,1.4,south,8.7
2021/05/16,21:20,1.5,south,10.5
2021/05/16,21:30,1.6,south,10.2
2021/05/16,21:40,1.5,south,11.0
2021/05/16,21:50,1.4,south,9.4
2021/05/16,22:00,1.4,south,7.9
2021/05/16,22:10,1.4,south,6.9
2021/05/16,22:20,1.5,south,8.8
2021/05/16,22:30,1.4,south,7.4
2021/05/16,22:40,1.4,south,9.4
2021/05/16,22:50,1.5,south,8.7
2021/05/16,23:00,1.5,south,8.6
2021/05/16,23:10,1.5,south,8.4
2021/05/16,23:20,1.4,south,9.6
2021/05/16,23:30,1.5,south,9.4
2021/05/16,23:40,1.5,south-southeast,12.2
2021/05/16,23:50,1.5,south,12.5
